Regional Weather Roundup
Issued by NWS Lake Charles, LA

Current Version | Previous Version | Text Only | Print | Product List | Glossary On
Versions: 1 2 3 4 5 6 7 8 9 10 11 12 13 14 15 16 17 18 19 20 21 22 23 24 25 26 27 28 29 30 31 32 33 34 35 36 37 38 39 40 41 42 43 44 45 46 47 48 49 50
000
ASUS44 KLCH 291410
RWRLCH
RWRLCH
REGIONAL WEATHER ROUNDUP
NATIONAL WEATHER SERVICE LAKE CHARLES LA
900 AM CDT SAT AUG 29 2015

Note: "fair" indicates few or no clouds below 12,000 feet with no
significant weather and/or obstructions to visibility.


ACROSS SOUTHEAST TEXAS

CITY           SKY/WX    TMP DP  RH WIND       PRES   REMARKS
BEAUMONT       SUNNY     80  70  71 CALM      30.04R
BEAUMONT CITY    N/A     74  69  84 CALM      30.05R
ORANGE         SUNNY     75  74  96 CALM      30.06R
JASPER         SUNNY     75  71  87 NW5       30.07S
$$

ACROSS CENTRAL LOUISIANA

CITY           SKY/WX    TMP DP  RH WIND       PRES   REMARKS
LEESVILLE      SUNNY     78  68  71 NW8       30.05R
FULLERTON        N/A     80  68  66 CALM      30.04S
ALEXANDRIA INT SUNNY     76  66  71 N3        30.04S
ESLER FIELD    SUNNY     76  67  73 CALM      30.06R
DERIDDER         N/A     75  67  77 CALM      30.07S
OAKDALE          N/A     76  68  75 NW3       30.05S
OPELOUSAS      CLOUDY    75  67  76 CALM      30.06R
$$

ACROSS SOUTHWEST AND SOUTH CENTRAL LOUISIANA

CITY           SKY/WX    TMP DP  RH WIND       PRES   REMARKS
SULPHUR        SUNNY     77  70  77 NW6       30.06R
LAKE CHARLES   SUNNY     79  69  71 NE3       30.04S
CHENNAULT INT  MOSUNNY   75  68  78 CALM      30.05S
CAMERON PHI    SUNNY     81  73  78 NE5       30.07R
DEQUINCY         N/A     74  70  87 CALM      30.06R
JENNINGS       PTSUNNY   73  68  84 CALM      30.05S
LAFAYETTE      SUNNY     77  66  68 N6        30.06R
NEW IBERIA     SUNNY     78  67  68 N6        30.06R
ABBEVILLE        N/A     76  69  79 CALM      30.06S
PATTERSON      SUNNY     77  72  83 CALM      30.07R
SALT POINT       N/A     78  69  73 VRB5      30.04R
$$

SELECTED SITES ACROSS THE REGION

CITY           SKY/WX    TMP DP  RH WIND       PRES   REMARKS
HOUSTON BUSH   MOSUNNY   78  71  79 CALM      30.04R
HOUSTON HOBBY  MOSUNNY   79  68  69 CALM      30.03R
GALVESTON      MOSUNNY   84  65  52 VRB3      30.04R
COLLEGE STAT   SUNNY     76  68  76 W6        30.06R
CONROE         SUNNY     77  69  76 CALM      30.06R
HUNTSVILLE     SUNNY     78  69  73 W6        30.06R
LUFKIN         MOSUNNY   75  69  81 CALM      30.06R
SHREVEPORT     MOSUNNY   80  69  69 SW7       30.05R
MONROE         SUNNY     78  64  61 NW3       30.06S
NATCHEZ MS     MOSUNNY   75  68  78 SE5       30.08R
BATON ROUGE    MOSUNNY   76  68  76 E3        30.05S
N.O. INTL ARPT MOSUNNY   82  65  56 S6        30.05S
SLIDELL        SUNNY     79  72  79 E5        30.06R
$$

MARINE REPORTS

STATION/POSITION TIME  TEMP    WIND        PRES    VSBY  WAVE
                       AIR SEA DIR/SP/G                  HT/PER
                 (UTC) (F)     (DEG/KT/KT) (MB)    (MI)  (FT/S)
BUOY 30 S HIGH I 1350   83 86  230/  4/  8 1016.6R         1/ 3
SEA RIM ST PARK  1400   82      CALM  /  1 1017.7R
PORT ARTHUR      NOT AVBL
SABINE PASS N    NOT AVBL
TEXAS POINT      NOT AVBL
CALCASIEU PASS   NOT AVBL
LK CHARLES BEACH NOT AVBL
MARSH ISLAND     1300   81      20/  6/  7   N/A           0
FRESH WATER LOCK NOT AVBL
AMERADA PASS     NOT AVBL
$$


USA.gov is the U.S. government's official web portal to all federal, state and local government web resources and services.